Home   Weather   Podgorica   Past weeks
Flag for Montenegro

Past Weather in Podgorica, Montenegro — Yesterday and Last 2 Weeks

Now
64 °F

Passing clouds.


Feels Like: 64 °F
Forecast: 68 / 45 °F
Wind: 7 mph from Southwest

Location: Podgorica Titograd

Current Time: Mar 29, 2020 at 6:09:24 pm

Latest Report: Mar 29, 2020 at 5:00 pm


Visibility: N/A

Pressure: 29.83 "Hg

Humidity: 37%

Dew Point: 37 °F

Location of PodgoricaLocation

Past Weather in Podgorica — Graph

°F

Podgorica Temperature Yesterday

Maximum temperature yesterday: 59 °F (at 1:00 pm)
Minimum temperature yesterday: 46 °F (at 3:30 am)
Average temperature yesterday: 52 °F

High & Low Weather Summary for the Past Weeks

 TemperatureHumidityPressure
High70 °F (Mar 18, 2:30 pm)100% (Mar 25, 12:30 am)30.45 "Hg (Mar 25, 12:30 am)
Low32 °F (Mar 25, 5:00 am)16% (Mar 19, 10:30 am)29.77 "Hg (Mar 26, 2:00 pm)
Average52 °F57%30.08 "Hg
* Reported Mar 14 4:00 pm — Mar 29 5:00 pm, Podgorica. Weather by CustomWeather, © 2020

Note: Actual official high and low records may vary slightly from our data, if they occured in-between our weather recording intervals... More about our weather records

Podgorica Weather History for the Previous 24 Hours

Scroll right to see more
 ConditionsComfort  
Time TempWeatherWind HumidityBarometerVisibility
5:00 pm
Sun, Mar 29
64 °FPassing clouds.7 mph37%29.83 "HgN/A
4:30 pm66 °FPassing clouds.10 mph35%29.83 "HgN/A
4:00 pm66 °FPassing clouds.5 mph32%29.83 "HgN/A
3:30 pm66 °FPassing clouds.7 mph26%29.83 "HgN/A
3:00 pm66 °FPassing clouds.6 mph30%29.83 "HgN/A
2:30 pm66 °FPassing clouds.6 mph37%29.83 "HgN/A
2:00 pm64 °FPassing clouds.5 mph37%29.86 "HgN/A
1:30 pm64 °FPassing clouds.5 mph40%29.86 "HgN/A
1:00 pm63 °FPassing clouds.6 mph49%29.86 "HgN/A
12:30 pm63 °FPassing clouds.5 mph49%29.89 "HgN/A
12:00 pm61 °FPassing clouds.2 mph48%29.89 "HgN/A
11:30 am61 °FPassing clouds.2 mph48%29.89 "HgN/A
11:00 am61 °FPassing clouds.2 mph45%29.89 "HgN/A
10:30 am59 °FPassing clouds.2 mph48%29.92 "HgN/A
10:00 am57 °FSunny.1 mph55%29.92 "Hg10 mi
9:30 am54 °FSunny.1 mph67%29.92 "Hg10 mi
9:00 am52 °FSunny.2 mph77%29.92 "Hg10 mi
8:30 am48 °FPassing clouds.3 mph87%29.92 "HgN/A
8:00 am48 °FPassing clouds.3 mph87%29.92 "HgN/A
7:30 am46 °FPassing clouds.5 mph87%29.92 "HgN/A
7:00 am46 °FPassing clouds.3 mph93%29.89 "HgN/A
6:30 am46 °FPassing clouds.1 mph93%29.89 "HgN/A
6:00 am46 °FPassing clouds.No wind93%29.89 "HgN/A
5:30 am48 °FPassing clouds.2 mph87%29.89 "HgN/A
5:00 am48 °FPassing clouds.No wind94%29.89 "HgN/A
4:30 am48 °FPassing clouds.1 mph94%29.89 "HgN/A
4:00 am50 °FPassing clouds.2 mph88%29.89 "HgN/A
3:30 am50 °FPassing clouds.3 mph88%29.89 "HgN/A
3:00 am50 °FPassing clouds.3 mph88%29.89 "HgN/A
1:30 am50 °FPassing clouds.2 mph88%29.89 "HgN/A
1:00 am50 °FPassing clouds.2 mph82%29.92 "HgN/A
12:30 am52 °FPassing clouds.3 mph77%29.92 "HgN/A
12:00 am52 °FPassing clouds.3 mph82%29.92 "HgN/A
11:30 pm
Sat, Mar 28
52 °FPassing clouds.3 mph82%29.92 "HgN/A
11:00 pm52 °FPassing clouds.2 mph82%29.92 "HgN/A
10:30 pm52 °FPassing clouds.1 mph82%29.92 "HgN/A
10:00 pm52 °FPassing clouds.2 mph82%29.92 "HgN/A
9:30 pm52 °FPassing clouds.2 mph82%29.92 "HgN/A
9:00 pm52 °FPassing clouds.2 mph82%29.92 "HgN/A
8:30 pm54 °FPassing clouds.1 mph72%29.92 "HgN/A
8:00 pm54 °FPassing clouds.5 mph72%29.89 "HgN/A
7:30 pm54 °FPassing clouds.3 mph72%29.89 "HgN/A
7:00 pm54 °FPassing clouds.5 mph77%29.89 "HgN/A
6:30 pm54 °FPassing clouds.3 mph77%29.89 "HgN/A
6:00 pm55 °FPartly sunny.1 mph77%29.89 "HgN/A
Weather by CustomWeather, © 2020

See weather overview

Advertising